This demonstration page uses our WeatherBlox Daily Observations layout. Learn more.

Left ArrowRight Arrow

Hourly Observations for May 2, 2020

Temp ( °F °C ) Dew Point ( °F °C ) Humidity (%) Winds ( mph kmh ) Pressure ( in mb ) Visibility ( mi km ) Precip ( " mm )
12:52 am 00:52 Mostly Clear 68 20 45 7.2 44 44 NNW 7 11 29.85 1011 10 16 0.00 0.00
1:52 am 01:52 Mostly Clear 63 17.2 46 7.8 54 54 Calm 29.87 1012 10 16 0.00 0.00
2:52 am 02:52 Partly Cloudy 61 16.1 48 8.9 63 63 Calm 29.87 1012 10 16 0.00 0.00
3:52 am 03:52 Mostly Cloudy 59 15 49 9.4 69 69 NNW 8 13 29.92 1013 10 16 0.00 0.00
4:52 am 04:52 Mostly Cloudy 62 16.7 50 10 65 65 N 8 13 29.90 1012 10 16 0.00 0.00
5:52 am 05:52 Cloudy 61 16.1 50 10 67 67 N 6 9 29.92 1013 10 16 0.00 0.00
6:52 am 06:52 Cloudy with Light Rain 61 16.1 53 11.7 75 75 NNE 9 15 29.95 1014 10 16 0.00 0.00
7:52 am 07:52 Cloudy 61 16.1 53 11.7 75 75 N 14 22 29.95 1014 10 16 0.00 0.00
8:52 am 08:52 Cloudy with Light Rain 62 16.7 54 12.2 75 75 N 10 17 30.00 1016 10 16 0.00 0.00
9:52 am 09:52 Mostly Cloudy 65 18.3 52 11.1 63 63 N 12 19 30.01 1016 10 16 0.00 0.00
10:52 am 10:52 Mostly Cloudy 65 18.3 51 10.6 61 61 N 13 20 30.01 1016 10 16 0.00 0.00
11:52 am 11:52 Mostly Cloudy 70 21.1 49 9.4 47 47 N 20 31 30.01 1016 10 16 0.00 0.00
12:52 pm 12:52 Mostly Cloudy 71 21.7 47 8.3 42 42 N 15 24 30.01 1016 10 16 0.00 0.00
1:52 pm 13:52 Mostly Cloudy 69 20.6 48 8.9 47 47 NNW 10 17 30.01 1016 10 16 0.00 0.00
2:52 pm 14:52 Cloudy 70 21.1 46 7.8 42 42 N 9 15 30.02 1017 10 16 0.00 0.00
3:52 pm 15:52 Cloudy 69 20.6 44 6.7 41 41 NNW 13 20 30.00 1016 10 16 0.00 0.00
4:52 pm 16:52 Cloudy 67 19.4 43 6.1 42 42 N 10 17 29.98 1015 10 16 0.00 0.00
5:52 pm 17:52 Cloudy 65 18.3 43 6.1 45 45 N 15 24 29.99 1016 10 16 0.00 0.00
6:52 pm 18:52 Cloudy 64 17.8 44 6.7 48 48 NNE 5 7 29.98 1015 10 16 0.00 0.00
7:52 pm 19:52 Mostly Cloudy 62 16.7 45 7.2 54 54 NNW 6 9 29.99 1016 10 16 0.00 0.00
8:52 pm 20:52 Mostly Cloudy 61 16.1 45 7.2 56 56 NNW 6 9 30.01 1016 10 16 0.00 0.00
9:52 pm 21:52 Mostly Cloudy 60 15.6 47 8.3 62 62 Calm 30.02 1017 10 16 0.00 0.00
10:52 pm 22:52 Mostly Cloudy 58 14.4 45 7.2 62 62 NNW 3 6 30.03 1017 10 16 0.00 0.00
11:52 pm 23:52 Partly Cloudy 55 12.8 45 7.2 69 69 N 5 7 30.02 1017 10 16 0.00 0.00

Powered by AerisWeather